2015-01-08 00:01:15 r, 16.68m,0000000018Hz,0000025827c,0000000.056s,-002.6C,00002191
2015-01-08 00:11:15 r, 16.69m,0000000018Hz,0000026047c,0000000.057s,-002.6C,00002191
2015-01-08 00:21:14 r, 16.70m,0000000017Hz,0000026161c,0000000.057s,-002.6C,00002191
2015-01-08 00:31:12 r, 16.69m,0000000018Hz,0000025886c,0000000.056s,-002.6C,00002191
2015-01-08 00:41:14 r, 16.64m,0000000018Hz,0000024824c,0000000.054s,-002.6C,00002191
2015-01-08 00:51:12 r, 16.66m,0000000018Hz,0000025223c,0000000.055s,-002.6C,00002191
2015-01-08 01:01:14 r, 16.62m,0000000019Hz,0000024234c,0000000.053s,-002.6C,00002191
2015-01-08 01:11:14 r, 16.69m,0000000018Hz,0000025885c,0000000.056s,-002.3C,00002191
2015-01-08 01:21:15 r, 16.62m,0000000019Hz,0000024234c,0000000.053s,-002.3C,00002191
2015-01-08 01:31:13 r, 16.59m,0000000019Hz,0000023656c,0000000.051s,-002.3C,00002191
2015-01-08 01:41:15 r, 16.65m,0000000018Hz,0000024967c,0000000.054s,-002.3C,00002191
2015-01-08 01:51:15 r, 16.62m,0000000019Hz,0000024222c,0000000.053s,-002.3C,00002191
2015-01-08 02:01:14 r, 16.60m,0000000019Hz,0000023893c,0000000.052s,-002.3C,00002191
2015-01-08 02:11:13 r, 16.71m,0000000017Hz,0000026516c,0000000.058s,-002.3C,00002191
2015-01-08 02:21:14 r, 16.75m,0000000017Hz,0000027554c,0000000.060s,-002.3C,00002191
2015-01-08 02:31:12 r, 16.61m,0000000019Hz,0000024183c,0000000.052s,-002.3C,00002191
2015-01-08 02:41:14 r, 16.64m,0000000018Hz,0000024781c,0000000.054s,-002.0C,00002191
2015-01-08 02:51:12 r, 16.65m,0000000019Hz,0000025088c,0000000.054s,-002.0C,00002191
2015-01-08 03:01:19 r, 16.65m,0000000019Hz,0000025179c,0000000.055s,-002.0C,00002191
2015-01-08 03:11:12 r, 16.69m,0000000018Hz,0000025983c,0000000.056s,-002.0C,00002191
2015-01-08 03:21:15 r, 16.69m,0000000018Hz,0000025890c,0000000.056s,-002.0C,00002191
2015-01-08 03:31:12 r, 16.64m,0000000018Hz,0000024911c,0000000.054s,-002.0C,00002191
2015-01-08 03:41:13 r, 16.64m,0000000018Hz,0000024954c,0000000.054s,-002.0C,00002191
2015-01-08 03:51:13 r, 16.68m,0000000018Hz,0000025700c,0000000.056s,-002.0C,00002191
2015-01-08 04:01:14 r, 16.68m,0000000018Hz,0000025792c,0000000.056s,-002.0C,00002191
2015-01-08 04:11:14 r, 16.73m,0000000017Hz,0000027068c,0000000.059s,-002.0C,00002191
2015-01-08 04:21:12 r, 16.83m,0000000015Hz,0000029537c,0000000.064s,-002.0C,00002191
2015-01-08 04:31:14 r, 16.84m,0000000015Hz,0000029817c,0000000.065s,-002.0C,00002191
2015-01-08 04:41:15 r, 16.91m,0000000015Hz,0000031756c,0000000.069s,-002.0C,00002191
2015-01-08 04:51:12 r, 16.86m,0000000016Hz,0000030560c,0000000.066s,-002.0C,00002191
2015-01-08 05:01:15 r, 16.92m,0000000014Hz,0000032115c,0000000.070s,-002.0C,00002191
2015-01-08 05:11:12 r, 16.86m,0000000015Hz,0000030529c,0000000.066s,-002.3C,00002191
2015-01-08 05:21:12 r, 16.90m,0000000015Hz,0000031567c,0000000.069s,-002.3C,00002191
2015-01-08 05:31:12 r, 16.89m,0000000014Hz,0000031441c,0000000.068s,-002.3C,00002191
2015-01-08 05:41:14 r, 16.87m,0000000015Hz,0000030714c,0000000.067s,-002.3C,00002191
2015-01-08 05:51:13 r, 16.95m,0000000014Hz,0000033089c,0000000.072s,-002.3C,00002191
2015-01-08 06:01:13 r, 16.97m,0000000013Hz,0000033686c,0000000.073s,-002.0C,00002191
2015-01-08 06:11:12 r, 17.02m,0000000013Hz,0000035341c,0000000.077s,-002.0C,00002191
2015-01-08 06:21:13 r, 17.12m,0000000012Hz,0000038881c,0000000.084s,-002.0C,00002191
2015-01-08 06:31:12 r, 17.19m,0000000011Hz,0000041079c,0000000.089s,-002.0C,00002191
2015-01-08 06:41:12 r, 17.28m,0000000010Hz,0000044843c,0000000.097s,-002.0C,00002191
2015-01-08 06:51:14 r, 17.41m,0000000009Hz,0000050615c,0000000.110s,-002.0C,00002191
2015-01-08 07:01:15 r, 17.39m,0000000009Hz,0000049744c,0000000.108s,-002.0C,00002191
2015-01-08 07:11:12 r, 17.30m,0000000010Hz,0000045538c,0000000.099s,-001.7C,00002191
2015-01-08 07:21:12 r, 17.11m,0000000012Hz,0000038327c,0000000.083s,-001.7C,00002191
2015-01-08 07:31:15 r, 16.23m,0000000027Hz,0000017078c,0000000.037s,-001.7C,00002191
2015-01-08 07:41:12 r, 14.67m,0000000113Hz,0000004040c,0000000.009s,-001.7C,00002191
2015-01-08 07:51:14 r, 12.91m,0000000577Hz,0000000000c,0000000.000s,-001.7C,00002191
2015-01-08 08:01:12 r, 11.15m,0000002926Hz,0000000000c,0000000.000s,-001.7C,00002191
2015-01-08 08:11:13 r, 09.58m,0000012457Hz,0000000000c,0000000.000s,-001.7C,00002191
2015-01-08 08:21:12 r, 08.54m,0000032420Hz,0000000000c,0000000.000s,-001.7C,00002191
2015-01-08 08:31:13 r, 07.88m,0000059405Hz,0000000000c,0000000.000s,-001.7C,00002191
2015-01-08 08:41:13 r, 07.30m,0000101676Hz,0000000000c,0000000.000s,-001.7C,00002191
2015-01-08 08:51:15 r, 06.61m,0000191404Hz,0000000000c,0000000.000s,-001.7C,00002191
2015-01-08 09:01:13 r, 06.13m,0000300643Hz,0000000000c,0000000.000s,-001.7C,00002191
2015-01-08 09:11:13 r, 06.08m,0000311495Hz,0000000000c,0000000.000s,-001.7C,00002191
2015-01-08 09:21:13 r, 05.95m,0000353030Hz,0000000000c,0000000.000s,-001.7C,00002191
2015-01-08 09:31:13 r, 00.00m,0000501526Hz,0000000000c,0000000.000s,-001.7C,00002191
2015-01-08 09:41:13 r, 00.00m,0000414969Hz,0000000000c,0000000.000s,-001.3C,00002191
2015-01-08 09:51:12 r, 00.00m,0000597329Hz,0000000000c,0000000.000s,-001.3C,00002191
2015-01-08 10:01:15 r, 00.00m,0000597301Hz,0000000000c,0000000.000s,-001.0C,00002191
2015-01-08 10:11:12 r, 00.00m,0000597163Hz,0000000000c,0000000.000s,-000.7C,00002191
2015-01-08 10:21:15 r, 00.00m,0000597181Hz,0000000000c,0000000.000s, 000.1C,00002191
2015-01-08 10:31:13 r, 00.00m,0000597127Hz,0000000000c,0000000.000s, 000.6C,00002191
2015-01-08 10:41:15 r, 00.00m,0000597016Hz,0000000000c,0000000.000s, 001.6C,00002191
2015-01-08 10:51:12 r, 00.00m,0000597084Hz,0000000000c,0000000.000s, 001.9C,00002191
2015-01-08 11:01:13 r, 00.00m,0000597022Hz,0000000000c,0000000.000s, 001.6C,00002191
2015-01-08 11:11:12 r, 00.00m,0000596948Hz,0000000000c,0000000.000s, 002.2C,00002191
2015-01-08 11:21:12 r, 00.00m,0000596908Hz,0000000000c,0000000.000s, 002.5C,00002191
2015-01-08 11:31:15 r, 00.00m,0000596829Hz,0000000000c,0000000.000s, 003.5C,00002191
2015-01-08 11:41:12 r, 00.00m,0000596904Hz,0000000000c,0000000.000s, 003.5C,00002191
2015-01-08 11:51:14 r, 00.00m,0000596818Hz,0000000000c,0000000.000s, 003.2C,00002191
2015-01-08 12:01:13 r, 00.00m,0000596897Hz,0000000000c,0000000.000s, 003.2C,00002191
2015-01-08 12:11:13 r, 00.00m,0000596906Hz,0000000000c,0000000.000s, 003.2C,00002191
2015-01-08 12:21:13 r, 00.00m,0000596909Hz,0000000000c,0000000.000s, 003.2C,00002191
2015-01-08 12:31:13 r, 00.00m,0000596935Hz,0000000000c,0000000.000s, 003.8C,00002191
2015-01-08 12:41:12 r, 00.00m,0000596849Hz,0000000000c,0000000.000s, 003.8C,00002191
2015-01-08 12:51:15 r, 00.00m,0000596789Hz,0000000000c,0000000.000s, 003.8C,00002191
2015-01-08 13:01:12 r, 00.00m,0000596823Hz,0000000000c,0000000.000s, 003.5C,00002191
2015-01-08 13:11:15 r, 00.00m,0000596878Hz,0000000000c,0000000.000s, 003.5C,00002191
2015-01-08 13:21:13 r, 00.00m,0000596950Hz,0000000000c,0000000.000s, 003.5C,00002191
2015-01-08 13:31:13 r, 00.00m,0000596876Hz,0000000000c,0000000.000s, 002.9C,00002191
2015-01-08 13:41:12 r, 00.00m,0000596839Hz,0000000000c,0000000.000s, 002.9C,00002191
2015-01-08 13:51:14 r, 00.00m,0000596862Hz,0000000000c,0000000.000s, 003.8C,00002191
2015-01-08 14:01:13 r, 00.00m,0000596860Hz,0000000000c,0000000.000s, 003.2C,00002191
2015-01-08 14:11:13 r, 00.00m,0000597008Hz,0000000000c,0000000.000s, 002.9C,00002191
2015-01-08 14:21:13 r, 00.00m,0000596925Hz,0000000000c,0000000.000s, 001.9C,00002191
2015-01-08 14:31:15 r, 00.00m,0000597050Hz,0000000000c,0000000.000s, 001.6C,00002191
2015-01-08 14:41:13 r, 00.00m,0000597066Hz,0000000000c,0000000.000s, 000.9C,00002191
2015-01-08 14:51:13 r, 00.00m,0000597172Hz,0000000000c,0000000.000s, 000.6C,00002191
2015-01-08 15:01:12 r, 00.00m,0000597005Hz,0000000000c,0000000.000s, 000.6C,00002191
2015-01-08 15:11:12 r, 00.00m,0000597129Hz,0000000000c,0000000.000s, 000.9C,00002191
2015-01-08 15:21:12 r, 00.00m,0000597161Hz,0000000000c,0000000.000s, 000.9C,00002191
2015-01-08 15:31:13 r, 00.00m,0000597129Hz,0000000000c,0000000.000s, 000.6C,00002191
2015-01-08 15:41:13 r, 00.00m,0000597202Hz,0000000000c,0000000.000s, 000.6C,00002191
2015-01-08 15:51:17 r, 00.00m,0000597211Hz,0000000000c,0000000.000s, 000.3C,00002191
2015-01-08 16:01:12 r, 00.00m,0000583842Hz,0000000000c,0000000.000s, 000.1C,00002191
2015-01-08 16:11:14 r, 00.00m,0000443868Hz,0000000000c,0000000.000s,-000.4C,00002191
2015-01-08 16:21:13 r, 06.02m,0000330321Hz,0000000000c,0000000.000s,-000.7C,00002191
2015-01-08 16:31:12 r, 06.45m,0000222069Hz,0000000000c,0000000.000s,-001.3C,00002191
2015-01-08 16:41:13 r, 07.03m,0000130463Hz,0000000000c,0000000.000s,-002.3C,00002191
2015-01-08 16:51:14 r, 07.85m,0000061240Hz,0000000000c,0000000.000s,-002.6C,00002191
2015-01-08 17:01:12 r, 09.01m,0000021081Hz,0000000000c,0000000.000s,-003.3C,00002191
2015-01-08 17:11:13 r, 10.53m,0000005192Hz,0000000000c,0000000.000s,-003.6C,00002191
2015-01-08 17:21:13 r, 12.34m,0000000979Hz,0000000000c,0000000.000s,-003.9C,00002191
2015-01-08 17:31:13 r, 14.31m,0000000159Hz,0000000000c,0000000.000s,-003.6C,00002191
2015-01-08 17:41:12 r, 16.07m,0000000031Hz,0000014609c,0000000.032s,-003.9C,00002191
2015-01-08 17:51:13 r, 17.50m,0000000008Hz,0000055021c,0000000.119s,-003.9C,00002191
2015-01-08 18:01:13 r, 18.60m,0000000003Hz,0000149684c,0000000.325s,-004.2C,00002191
2015-01-08 18:11:14 r, 19.42m,0000000002Hz,0000317866c,0000000.690s,-004.2C,00002191
2015-01-08 18:21:12 r, 19.68m,0000000001Hz,0000407036c,0000000.883s,-004.2C,00002191
2015-01-08 18:31:14 r, 19.16m,0000000002Hz,0000251647c,0000000.546s,-004.2C,00002191
2015-01-08 18:41:12 r, 19.60m,0000000002Hz,0000376294c,0000000.817s,-004.2C,00002191
2015-01-08 18:51:13 r, 19.78m,0000000001Hz,0000446277c,0000000.968s,-004.2C,00002191
2015-01-08 19:01:12 r, 20.07m,0000000000Hz,0000585272c,0000001.270s,-004.6C,00002191
2015-01-08 19:11:13 r, 20.10m,0000000001Hz,0000600214c,0000001.303s,-004.6C,00002191
2015-01-08 19:21:13 r, 20.08m,0000000000Hz,0000586466c,0000001.273s,-004.9C,00002191
2015-01-08 19:31:13 r, 20.06m,0000000000Hz,0000575138c,0000001.248s,-005.2C,00002191
2015-01-08 19:41:12 r, 20.03m,0000000001Hz,0000564513c,0000001.225s,-005.2C,00002191
2015-01-08 19:51:14 r, 19.95m,0000000001Hz,0000519231c,0000001.127s,-005.5C,00002191
2015-01-08 20:01:12 r, 19.22m,0000000001Hz,0000264905c,0000000.575s,-005.5C,00002191
2015-01-08 20:11:14 r, 19.58m,0000000001Hz,0000368573c,0000000.800s,-005.5C,00002191
2015-01-08 20:21:14 r, 19.82m,0000000001Hz,0000462673c,0000001.004s,-005.5C,00002191
2015-01-08 20:31:13 r, 19.75m,0000000001Hz,0000433789c,0000000.941s,-005.5C,00002191
2015-01-08 20:41:12 r, 19.77m,0000000001Hz,0000440551c,0000000.956s,-005.5C,00002191
2015-01-08 20:51:13 r, 19.84m,0000000001Hz,0000470476c,0000001.021s,-005.5C,00002191
2015-01-08 21:01:12 r, 19.29m,0000000001Hz,0000283005c,0000000.614s,-005.5C,00002191
2015-01-08 21:11:13 r, 19.80m,0000000001Hz,0000452080c,0000000.981s,-005.5C,00002191
2015-01-08 21:21:13 r, 19.70m,0000000001Hz,0000413753c,0000000.898s,-005.5C,00002191
2015-01-08 21:31:12 r, 19.61m,0000000002Hz,0000380069c,0000000.825s,-005.9C,00002191
2015-01-08 21:41:13 r, 19.53m,0000000002Hz,0000354166c,0000000.769s,-005.9C,00002191
2015-01-08 21:51:13 r, 19.48m,0000000001Hz,0000337541c,0000000.733s,-005.9C,00002191
2015-01-08 22:01:12 r, 19.42m,0000000001Hz,0000318625c,0000000.691s,-005.9C,00002191
2015-01-08 22:11:12 r, 19.37m,0000000002Hz,0000303187c,0000000.658s,-006.2C,00002191
2015-01-08 22:21:12 r, 19.30m,0000000002Hz,0000288633c,0000000.626s,-006.2C,00002191
2015-01-08 22:31:13 r, 19.26m,0000000002Hz,0000274473c,0000000.596s,-006.5C,00002191
2015-01-08 22:41:12 r, 19.18m,0000000002Hz,0000255285c,0000000.554s,-006.5C,00002191
2015-01-08 22:51:13 r, 19.13m,0000000002Hz,0000245610c,0000000.533s,-006.8C,00002191
2015-01-08 23:01:12 r, 19.01m,0000000002Hz,0000217803c,0000000.473s,-006.8C,00002191
2015-01-08 23:11:12 r, 18.99m,0000000002Hz,0000214881c,0000000.466s,-006.8C,00002191
2015-01-08 23:21:13 r, 18.37m,0000000003Hz,0000120869c,0000000.262s,-006.8C,00002191
2015-01-08 23:31:15 r, 18.32m,0000000004Hz,0000115291c,0000000.250s,-006.5C,00002191
2015-01-08 23:41:13 r, 18.52m,0000000004Hz,0000140073c,0000000.304s,-006.5C,00002191
2015-01-08 23:51:12 r, 18.33m,0000000004Hz,0000117169c,0000000.254s,-006.2C,00002191
